Location: Cazarilh
(42.9578°N, 0.5819°E)
Time: 13:29:33
(UTC+00:00)

CZ-4 R/B - Pass Details

Date: 11 December 2019
Orbit: 533 x 598 km, 97.7° (Epoch: 22 January)

Event Time Altitude Azimuth Distance (km) Brightness Sun altitude
Rises 06:17:52 0° 28° (NNE) 2,702 4.9 -10.7°
Reaches altitude 10° 06:20:26 10° 46° (NE) 1,812 4.3 -10.3°
Maximum altitude 06:23:21 20° 94° (E) 1,297 4.3 -9.8°
Drops below altitude 10° 06:26:18 10° 143° (SE) 1,824 5.0 -9.3°
Sets 06:28:53 0° 160° (SSE) 2,725 5.6 -8.9°
